This demonstration page uses our WeatherBlox Daily Observations layout. Learn more.

Left ArrowRight Arrow

Hourly Observations for September 2, 2019

Temp ( °F °C ) Dew Point ( °F °C ) Humidity (%) Winds ( mph kmh ) Pressure ( in mb ) Visibility ( mi km ) Precip ( " mm )
12:51 am 00:51 Clear 75 23.9 65 18.3 71 71 ENE 3 6 29.90 1012 10 16 0.00 0.00
1:51 am 01:51 Clear 74 23.3 61 16.1 64 64 NNW 6 9 29.90 1013 10 16 0.00 0.00
2:51 am 02:51 Clear 72 22.2 61 16.1 68 68 Calm 29.90 1013 10 16 0.00 0.00
3:51 am 03:51 Clear 71 21.7 62 16.7 73 73 Calm 29.89 1012 10 16 0.00 0.00
4:51 am 04:51 Clear 71 21.7 59 15 66 66 S 3 6 29.90 1013 10 16 0.00 0.00
5:51 am 05:51 Clear 70 21.1 59 15 68 68 Calm 29.94 1014 10 16 0.00 0.00
6:52 am 06:52 undefined 74 23.3 61 16.1 64 64 NE 3 6 29.94 1014 10 16 0.00 0.00
7:51 am 07:51 Sunny 80 26.7 56 13.3 44 44 Calm 29.94 1014 10 16 0.00 0.00
8:51 am 08:51 Sunny 83 28.3 55 12.8 38 38 Calm 29.95 1014 10 16 0.00 0.00
9:51 am 09:51 Sunny 91 32.8 51 10.6 26 26 ESE 8 13 29.93 1014 10 16 0.00 0.00
10:51 am 10:51 Sunny 94 34.4 51 10.6 23 23 SSE 7 11 29.91 1013 10 16 0.00 0.00
11:51 am 11:51 Sunny 95 35 49 9.4 21 21 undefined N/A 29.89 1012 10 16 0.00 0.00
12:51 pm 12:51 undefined 98 36.7 49 9.4 19 19 S 10 17 29.86 1011 10 16 0.00 0.00
1:51 pm 13:51 Sunny 100 37.8 47 8.3 16 16 VRB 5 7 29.81 1010 10 16 0.00 0.00
2:51 pm 14:51 Sunny 99 37.2 43 6.1 15 15 WSW 3 6 29.79 1009 10 16 0.00 0.00
3:51 pm 15:51 Sunny 101 38.3 43 6.1 14 14 SSE 12 19 29.75 1008 10 16 0.00 0.00
4:51 pm 16:51 Sunny 100 37.8 40 4.4 13 13 VRB 6 9 29.74 1007 10 16 0.00 0.00
5:51 pm 17:51 Sunny 100 37.8 41 5 13 13 SSW 9 15 29.74 1007 10 16 0.00 0.00
6:51 pm 18:51 Clear 95 35 43 6.1 17 17 NW 7 11 29.75 1007 10 16 0.00 0.00
7:51 pm 19:51 Clear 94 34.4 52 11.1 24 24 NW 16 26 29.77 1008 10 16 0.00 0.00
8:51 pm 20:51 Clear 91 32.8 51 10.6 26 26 WNW 10 17 29.80 1009 10 16 0.00 0.00
9:51 pm 21:51 Clear 90 32.2 50 10 25 25 NW 13 20 29.79 1009 10 16 0.00 0.00
10:51 pm 22:51 Mostly Clear 88 31.1 50 10 27 27 N 3 6 29.81 1010 10 16 0.00 0.00
11:51 pm 23:51 Clear 86 30 54 12.2 33 33 NNW 12 19 29.80 1009 10 16 0.02 0.51

Powered by AerisWeather